星链-32297 (STARLINK-32297)

导读 | 豆包AI

STARLINK-32297是美国SpaceX星链(Starlink)星座的一员,于2024年10月15日发射升空,归属星链低轨互联网卫星项目。星链计划旨在搭建全球覆盖的卫星互联网通信系统,该卫星同批次卫星多采用Starlink v2.0 mini平台,运行于近地轨道,为全球用户提供宽带互联网接入服务,是SpaceX持续扩充星链星座部署的组成部分,推动全球无缝网络覆盖建设。

基本信息
目录编号:
61521
目录名称:
STARLINK-32297
国际标识:
2024-183N
轨道中心:
EARTH
卫星名称:
星链-32297
卫星全名:
星链-32297 (STARLINK-32297)
卫星状态:
在轨 (已飞行516 天)
发射日期:
2024-10-15 UTC
国别 :
美国 (US)
星等 :
--
轨道信息
数据来源 国际轨道数据
星历时间: 2026-03-15T04:03:55+0800
15小时前
查看轨道信息
半长轴: 6853.368km
偏心率: 0.0001126
轨道倾角: 53.161°
近地点辐角 104.341°
升交点赤经 118.297°
平近点角 255.772°
近地点: 474.459km
远地点: 476.003km
周期: 94.106分钟
每日圈数: 15.301947
详细信息
固有亮度:
5
最大亮度:
2.5
卫星平台:
Starlink V1.0
覆盖范围:
全球
运营商:
太空探索技术公司
运营商所在国:
美国
制造商(研发单位):
太空探索技术公司
制造商所在国:
美国
使用方式:
暂无
卫星简介
Starlink 计划是 SpaceX 推出的全球卫星互联网项目,通过发射低轨道卫星,为全球尤其是偏远地区提供高速、低延迟的互联网服务。自 2019 年起,Starlink 已部署数千颗卫星,旨在缩小全球数字鸿沟,推动互联网普及。该项目还为军事、航空等行业提供通信支持,带来广泛经济效益。
2D轨道图
3D轨道图
轨道高度分析图
轨道倾角分析图
轨道综合分析图
查看轨道综合分析图